Lapse_Rate
5.8 6.1 6.2 6.2 6.5 6.3 5.8 5.7 5.1 5.3 4.9 5.1 5.1 4.8 4.4 4.5 5.2 5.0 5.2 5.5 5.7 5.9 6.0 6.0 6.1 5.7 5.4 5.3 5.6 5.4 5.3 5.3 5.2 5.0 5.1 5.1 5.0 5.0 5.0 5.4 5.4 5.4 5.1
6.4 6.2 6.4 6.4 6.6 6.5 6.7 6.7 6.7 6.5 6.4 6.0 5.7 5.3 5.0 4.8 5.1 5.2 5.2 5.2 5.8 6.0 6.0 6.2 6.1 6.0 5.8 5.7 5.6 5.5 5.4 5.3 5.3 5.2 5.2 5.2 5.4 5.0 4.8 4.8 5.0 5.6 5.7
5.9 6.0 6.3 6.4 6.4 6.3 6.5 7.1 7.1 7.0 6.7 6.6 6.6 5.8 5.2 5.0 5.2 6.0 5.1 5.3 5.8 6.2 6.2 6.2 6.1 6.0 5.9 5.9 5.8 5.8 5.6 5.6 5.6 5.5 5.2 4.7 4.9 4.9 4.9 4.9 5.0 5.1 5.2
4.9 5.1 5.8 6.4 6.6 6.8 6.5 6.6 6.8 6.8 6.8 6.7 6.4 6.3 6.0 5.4 5.8 5.9 6.0 6.0 5.9 6.1 6.3 6.0 5.8 6.0 6.0 5.9 5.8 5.7 5.7 5.5 5.6 5.6 5.3 5.0 4.8 4.6 4.4 4.6 5.1 5.2 4.9
4.8 5.1 5.4 5.4 5.8 6.1 6.6 6.3 6.5 6.8 6.9 6.9 6.8 6.1 6.1 6.1 5.9 6.0 5.7 6.0 6.0 5.8 6.1 5.9 6.0 6.0 6.0 6.0 5.9 5.9 5.9 5.8 5.6 5.4 5.1 5.2 5.1 4.8 4.5 4.3 4.4 4.9 4.8
4.8 4.8 4.6 4.1 4.7 5.5 6.3 6.6 6.4 6.3 6.7 6.8 6.7 6.7 6.1 6.0 6.1 6.2 5.9 5.8 5.6 5.5 5.9 5.7 5.6 5.9 5.8 5.9 6.0 6.1 6.1 6.0 5.8 5.4 5.3 5.1 5.0 5.1 5.0 4.8 4.8 4.7 4.9
4.8 4.9 5.0 4.9 5.2 5.5 5.9 6.5 6.6 6.8 6.8 6.5 6.6 7.0 6.7 6.3 6.2 6.2 5.8 5.8 6.1 5.6 5.6 5.5 5.7 5.7 5.7 5.8 5.6 5.8 5.9 5.8 5.9 5.7 5.7 5.4 5.3 5.4 5.2 5.4 5.3 5.2 5.0
4.7 4.7 4.6 5.1 5.3 5.2 5.2 5.9 6.1 6.5 6.5 6.6 6.6 6.5 6.3 6.1 6.1 6.1 6.1 5.7 5.4 5.3 5.4 5.6 5.6 5.5 5.6 5.7 6.0 6.0 6.1 6.2 6.1 5.8 5.7 5.6 5.7 5.5 5.5 5.2 5.4 5.5 5.3
4.8 4.8 5.1 4.6 5.0 4.8 5.0 5.5 5.5 6.0 6.4 6.8 6.6 6.2 5.7 5.9 6.1 5.8 5.4 5.1 5.2 5.4 5.6 5.5 5.5 5.4 5.5 5.4 5.6 5.7 5.8 6.0 6.0 6.1 6.1 5.8 5.9 5.8 5.7 5.7 6.1 5.9 5.6
4.9 5.3 5.2 5.2 5.0 4.9 4.7 5.1 5.2 5.4 5.5 5.8 5.6 5.5 5.4 5.3 5.1 5.2 5.3 5.1 4.9 5.0 5.2 5.4 5.3 5.5 5.6 5.4 5.7 6.0 5.7 5.7 5.7 6.3 6.4 5.9 6.1 6.1 6.3 6.0 6.1 6.0 5.4
5.1 5.2 5.4 5.2 4.9 4.8 5.0 5.1 4.9 4.8 4.9 4.9 5.3 5.3 5.0 4.8 4.8 4.7 4.7 4.7 4.9 5.1 5.1 5.6 5.4 5.5 5.5 5.6 5.7 6.1 6.1 6.2 6.3 6.6 6.3 6.0 6.1 6.2 5.7 5.7 5.7 5.6 5.4
5.1 5.0 5.2 5.1 4.9 4.8 4.9 4.0 5.0 5.2 5.2 5.5 5.5 5.3 5.2 5.4 5.5 5.6 5.6 5.5 5.7 5.4 5.3 5.5 5.6 5.4 5.7 5.7 6.3 6.5 6.4 6.0 6.2 6.0 5.7 5.9 6.0 5.9 5.7 5.9 5.8 5.2 5.1
5.0 4.9 5.0 5.1 5.1 4.9 4.7 4.8 4.7 4.9 4.9 5.1 5.5 5.7 5.6 5.5 5.6 6.0 6.0 5.8 6.0 5.8 5.8 6.1 6.0 6.1 6.2 6.3 6.4 6.4 6.3 6.2 6.2 6.2 6.1 6.0 6.1 6.1 5.8 5.6 5.5 5.2 5.0
5.3 5.1 5.0 4.9 4.9 5.0 4.9 4.8 4.9 5.0 5.1 5.0 5.1 5.1 5.0 5.2 5.4 5.3 5.5 5.6 5.8 5.9 5.9 5.9 6.0 6.1 6.1 6.2 6.2 6.2 6.2 6.3 6.3 6.2 6.0 6.0 6.0 5.8 5.7 5.6 5.5 5.5 5.3
5.2 5.1 5.0 5.0 5.0 4.9 4.8 4.8 4.8 4.7 4.7 4.8 4.9 5.0 5.0 5.0 5.1 5.2 5.3 5.4 5.5 5.7 5.8 6.0 6.0 6.1 6.3 6.2 6.3 6.3 6.3 6.2 6.1 6.0 6.0 5.9 5.8 5.7 5.8 5.8 5.8 5.6 5.5
5.6 5.5 5.4 5.2 5.1 5.0 5.0 5.1 5.0 4.9 4.9 4.9 4.9 5.0 5.1 5.3 5.4 5.5 5.5 5.5 5.5 5.6 5.7 5.7 5.7 5.7 5.8 5.8 5.7 5.6 5.5 5.7 5.9 6.0 5.9 5.9 5.7 5.7 5.7 5.7 5.5 5.5 5.3
5.6 5.5 5.4 5.3 5.3 5.3 5.3 5.2 5.2 5.1 5.1 5.2 5.2 5.3 5.4 5.4 5.4 5.4 5.4 5.5 5.5 5.4 5.4 5.5 5.5 5.5 5.4 5.4 5.3 5.4 5.5 5.6 5.6 5.5 5.5 5.5 5.3 5.3 5.2 5.3 5.2 4.8 4.6
5.7 5.7 5.6 5.5 5.5 5.4 5.4 5.3 5.3 5.2 5.2 5.2 5.2 5.3 5.4 5.5 5.5 5.6 5.5 5.5 5.6 5.6 5.6 5.7 5.7 5.7 5.6 5.8 5.8 5.9 5.9 5.9 5.9 5.8 5.9 6.0 5.8 5.8 5.7 5.5 5.2 4.8 4.7
5.7 5.6 5.6 5.6 5.5 5.4 5.4 5.3 5.2 5.2 5.2 5.2 5.2 5.2 5.2 5.3 5.4 5.5 5.6 5.7 5.8 5.8 5.9 5.8 5.8 5.7 5.6 5.5 5.6 5.6 5.7 5.8 5.6 5.5 5.2 5.0 4.8 4.4 4.4 4.4 4.4 4.6 4.8
5.9 5.8 5.7 5.7 5.7 5.6 5.5 5.4 5.3 5.3 5.3 5.2 5.3 5.4 5.5 5.7 5.8 5.9 5.9 5.9 5.8 5.7 5.7 5.6 5.5 5.4 5.3 5.2 5.2 5.1 5.2 5.1 5.1 4.7 4.6 4.3 4.2 4.0 4.0 4.0 4.0 4.1 4.4
5.8 5.7 5.6 5.5 5.4 5.4 5.2 5.4 5.4 5.4 5.4 5.4 5.5 5.6 5.7 5.8 5.8 5.8 5.8 5.9 5.9 5.8 5.6 5.4 5.2 5.0 4.9 4.8 4.8 4.9 4.8 4.8 4.9 4.8 4.7 4.3 4.0 3.7 3.6 3.6 3.9 4.2 4.6
5.5 5.7 5.7 5.6 5.6 5.5 5.4 5.4 5.4 5.5 5.4 5.4 5.3 5.3 5.3 5.3 5.4 5.4 5.4 5.3 5.4 5.2 5.1 5.0 4.9 4.8 4.7 4.6 4.6 4.5 4.3 4.2 4.3 4.2 4.1 4.0 3.7 3.4 3.6 3.8 4.1 4.4 4.5
5.2 4.8 4.9 4.9 5.1 5.0 4.8 4.9 5.0 5.0 5.0 5.0 4.9 4.8 4.8 4.9 5.0 5.1 5.1 5.1 5.0 4.9 4.8 4.7 4.6 4.5 4.4 4.5 4.3 4.1 4.0 3.9 3.8 3.6 3.6 3.4 3.5 3.4 3.6 3.8 4.1 4.3 4.2
5.1 4.8 4.6 4.6 4.7 4.7 4.6 4.5 4.7 4.8 4.8 4.6 4.5 4.6 4.7 4.8 4.8 4.7 4.8 4.7 4.6 4.5 4.3 4.2 4.1 4.0 4.0 4.5 4.7 4.4 4.0 3.9 4.0 3.8 4.0 3.8 3.6 3.6 3.6 3.8 4.0 3.9 3.7
5.0 4.9 4.9 4.8 4.6 4.5 4.5 4.4 4.4 4.5 4.5 4.4 4.4 4.6 4.5 4.5 4.5 4.5 4.5 4.4 4.4 4.3 4.1 4.0 3.9 4.2 5.2 5.2 5.0 4.7 4.7 4.5 4.4 4.4 4.5 4.3 4.1 4.0 4.0 3.9 3.9 3.6 3.5
5.3 5.2 5.1 4.8 4.5 4.3 4.1 4.2 4.2 4.2 4.2 4.3 4.3 4.4 4.4 4.3 4.4 4.4 4.4 4.3 4.1 4.1 4.2 4.4 4.7 5.2 5.4 5.3 5.3 5.0 4.7 4.3 4.3 4.2 4.4 4.2 4.2 4.2 4.2 4.2 3.9 3.8 3.7
Wind_Speed
13 14 15 17 16 7 6 7 8 8 5 4 3 4 7 4 4 4 7 9 9 8 5 4 4 4 4 5 6 4 5 4 4 3 5 7 7 6 6 7 4 5 6
14 15 15 17 17 15 16 11 8 8 6 3 3 4 4 5 3 4 4 7 5 3 3 3 3 4 3 5 5 5 4 4 5 4 4 5 4 8 12 10 10 11 11
15 14 16 14 15 16 16 15 15 11 7 7 4 4 6 4 3 5 4 4 7 6 5 4 4 4 3 4 5 6 7 9 5 10 5 2 5 3 6 14 13 14 10
10 12 12 14 14 15 15 15 14 15 11 7 5 8 6 7 4 3 3 4 4 3 1 3 4 5 4 5 6 6 8 7 9 3 9 11 4 4 3 4 11 12 12
8 8 7 8 10 13 14 14 15 13 14 10 8 5 7 4 2 4 4 1 1 2 5 4 5 5 4 5 7 9 8 7 9 9 5 8 10 12 10 9 4 4 8
10 7 5 8 10 10 12 13 13 13 13 12 8 8 8 7 5 4 5 4 3 1 5 4 3 4 5 7 9 10 10 9 9 8 9 9 5 8 8 9 5 5 4
8 6 5 5 10 13 14 13 13 12 13 10 5 5 7 9 8 4 1 3 3 3 6 6 5 4 6 7 9 11 10 9 9 11 9 8 10 12 10 10 9 8 5
6 6 5 6 9 11 13 13 12 11 12 10 12 10 10 6 6 7 7 6 5 6 6 6 6 7 7 8 10 5 5 7 8 12 7 6 4 3 4 3 6 4 6
4 5 5 5 8 7 11 12 10 10 10 11 9 10 8 9 8 8 9 6 7 6 8 7 7 8 9 10 10 8 9 7 4 3 3 2 1 2 2 2 2 3 4
4 1 2 3 6 7 8 8 7 8 9 9 8 8 8 9 8 8 9 9 7 8 8 9 9 9 8 9 7 6 8 7 6 7 10 5 4 4 4 5 5 6 9
1 0 1 2 3 3 4 4 6 6 7 7 7 8 7 7 7 8 7 6 6 6 8 7 7 6 7 7 6 7 8 8 7 6 6 7 7 5 6 7 6 4 5
3 1 3 2 5 1 3 4 5 6 6 5 6 6 6 5 6 6 6 5 5 5 7 7 5 6 5 6 8 8 7 7 8 7 8 7 5 4 3 3 6 5 6
2 1 1 1 3 4 5 4 5 5 1 0 3 2 3 3 2 3 3 2 4 4 4 5 5 5 6 6 7 7 8 8 7 6 5 6 6 6 5 5 5 5 6
5 3 2 1 2 0 1 4 5 5 6 5 6 6 6 6 5 6 6 6 5 5 5 6 5 5 6 6 7 8 7 6 7 7 6 6 6 4 5 4 5 5 5
7 7 6 5 4 3 2 2 2 3 3 4 4 4 5 5 5 5 5 6 6 5 5 5 5 6 5 4 6 5 6 7 7 6 6 6 9 12 9 5 5 5 5
8 8 8 7 6 5 4 4 3 2 1 3 4 5 5 5 4 4 4 4 5 4 4 5 4 4 3 6 11 11 7 9 9 8 7 6 9 8 16 15 15 12 11
8 8 8 7 6 6 6 6 5 3 1 0 1 1 2 3 3 3 4 4 5 5 5 5 5 6 6 5 9 11 7 6 5 6 7 8 7 10 8 14 17 14 18
8 8 8 7 7 7 6 6 5 4 3 1 1 1 2 3 4 4 4 5 4 5 5 5 5 5 5 5 7 11 6 5 6 6 8 9 8 7 12 13 13 13 13
8 7 8 7 7 7 7 6 5 5 4 3 0 2 3 4 5 6 5 5 4 5 4 5 6 5 4 6 8 9 4 5 6 5 6 9 12 15 20 14 12 12 10
6 8 8 7 8 8 8 6 5 5 4 2 2 2 2 3 4 5 5 3 3 5 4 5 5 6 3 7 10 10 7 7 7 9 9 14 15 22 22 15 13 13 13
8 8 8 7 7 7 7 6 5 5 4 4 1 2 3 4 5 3 3 3 5 5 5 5 5 5 4 6 14 14 8 6 7 8 10 10 22 23 25 25 14 15 16
6 8 7 7 7 8 8 7 7 5 5 3 2 3 4 3 3 3 3 4 5 5 5 5 4 4 4 11 13 16 16 15 8 9 9 11 23 28 28 23 25 26 22
6 5 6 7 7 7 7 7 6 6 5 4 4 4 3 3 3 3 4 3 4 4 4 4 5 5 4 4 13 17 19 18 11 9 15 25 25 25 18 23 23 22 8
7 6 7 7 7 7 7 7 6 6 6 4 4 2 2 3 3 3 3 2 3 3 3 4 6 6 6 5 6 9 10 17 13 15 12 17 18 19 17 15 11 7 7
7 7 9 7 8 8 7 7 6 7 5 5 4 3 3 2 3 3 3 2 3 2 3 6 6 7 8 8 16 15 12 11 14 16 8 8 9 10 10 8 9 8 6
6 7 8 8 8 8 7 7 7 7 6 4 3 3 1 2 3 3 3 7 6 8 10 12 8 7 14 18 20 22 22 22 20 9 8 9 9 10 10 11 11 9 10
Wind_Direction
341 341 346 351 350 274 260 271 274 270 255 230 207 243 231 241 265 223 210 205 203 217 212 213 220 223 218 206 197 209 230 243 206 249 258 260 246 256 252 257 261 235 238
333 338 346 351 351 347 351 323 271 266 252 228 234 207 239 218 205 236 210 205 209 223 226 239 254 247 241 228 206 212 243 240 197 214 245 255 242 235 235 239 249 247 245
335 340 346 346 344 343 339 332 329 297 246 238 237 263 241 260 210 220 183 197 194 204 211 244 258 268 261 254 259 238 224 240 225 211 206 232 236 213 208 229 230 231 219
342 342 345 344 340 338 332 330 324 314 303 244 228 219 239 220 194 218 215 191 213 196 176 255 260 250 236 242 240 239 236 227 237 210 225 237 224 232 283 237 224 225 227
305 322 329 336 338 338 330 327 317 312 310 279 236 236 233 226 184 209 193 329 278 9 49 30 351 315 283 257 241 242 242 238 243 237 222 228 240 248 248 251 247 238 221
319 303 304 340 341 337 337 326 319 316 297 285 238 223 211 229 222 183 204 159 193 112 65 35 359 325 312 303 274 259 250 249 252 246 239 229 222 233 227 237 224 218 236
289 290 320 339 350 349 344 334 333 330 337 312 312 256 233 215 208 201 128 99 83 48 20 6 352 349 334 316 307 253 240 239 245 246 240 234 242 248 246 242 238 239 223
325 329 18 13 344 349 343 339 342 355 354 8 33 35 18 48 48 48 54 46 31 34 11 359 1 0 355 343 338 315 287 266 251 247 230 241 223 200 221 215 234 244 242
323 347 37 357 338 354 339 341 352 5 12 24 38 45 39 49 49 50 60 51 38 16 9 353 5 2 357 2 354 357 7 329 291 296 280 262 284 275 234 216 204 250 270
248 244 41 357 9 353 335 337 347 18 22 31 42 50 46 55 55 54 52 51 30 17 8 356 3 1 357 357 352 350 5 10 12 14 9 354 338 260 230 222 227 225 246
150 65 123 139 209 235 268 300 321 33 32 30 44 53 50 52 60 58 51 47 30 20 8 346 5 343 1 343 359 8 5 5 5 3 7 358 7 358 359 1 346 298 269
175 162 145 225 279 271 335 23 31 31 31 26 27 52 47 43 63 67 45 11 40 37 0 326 335 356 352 344 17 8 1 1 351 356 2 351 337 358 331 334 317 312 318
240 326 37 11 44 13 360 17 34 19 227 45 149 125 115 74 54 83 77 75 48 20 349 347 359 359 343 35 20 2 357 347 339 346 340 322 336 348 342 359 346 327 314
221 227 279 264 120 48 61 5 26 25 2 36 37 33 34 36 29 32 28 26 13 19 2 349 342 347 345 42 13 355 340 333 335 336 332 328 337 343 317 320 307 319 329
214 215 217 207 194 184 144 93 43 33 2 38 46 28 23 29 32 23 12 8 2 350 342 344 352 351 332 36 5 342 340 332 330 321 328 332 329 327 330 334 324 306 305
207 207 192 186 193 191 180 167 166 142 31 30 24 16 13 9 16 1 346 347 336 332 325 321 331 338 330 9 355 353 343 336 327 328 328 324 320 326 322 315 307 296 295
209 195 185 191 205 176 169 181 169 178 144 98 356 17 359 336 324 317 323 325 324 325 326 332 340 333 323 352 344 336 325 307 313 312 316 318 316 322 312 311 309 307 298
200 185 176 179 176 159 172 160 169 179 167 218 256 352 347 333 321 322 331 329 329 322 321 323 312 306 299 314 331 325 320 301 296 291 292 304 295 287 298 302 297 293 289
196 181 170 170 166 171 178 169 178 188 190 224 276 12 355 339 331 324 329 314 326 316 299 289 289 288 291 316 340 330 285 266 279 285 299 307 309 299 306 302 291 284 279
175 161 163 156 157 177 158 169 195 186 207 163 69 351 324 313 305 309 317 293 308 292 293 296 297 298 322 338 333 334 325 322 324 318 309 305 309 311 311 306 302 292 292
161 145 151 164 172 160 154 184 195 195 176 122 193 285 295 284 274 285 303 301 306 296 307 310 316 320 334 329 331 330 329 325 319 316 314 310 310 311 307 301 292 284 288
173 166 165 173 179 161 161 185 194 189 140 146 228 263 264 261 271 254 276 287 298 300 318 323 318 327 331 337 326 328 328 322 317 307 302 301 308 308 305 303 292 290 287
208 178 174 181 181 167 165 186 201 166 156 183 227 248 273 286 310 298 296 300 312 320 326 333 324 321 327 306 321 324 321 324 316 306 305 310 309 306 308 305 298 301 290
206 183 181 199 194 178 178 187 180 154 157 203 250 284 312 292 302 312 315 327 324 326 341 318 313 315 313 314 315 325 324 322 319 318 312 318 319 314 307 319 306 289 280
199 183 191 198 199 181 179 177 177 159 178 204 219 227 239 280 298 296 274 281 275 282 303 310 309 312 316 317 322 324 323 323 320 326 326 326 326 324 319 315 314 300 277
196 189 193 189 191 172 174 175 166 165 175 198 216 223 173 299 290 287 298 295 312 316 308 304 303 308 312 319 325 321 325 327 329 333 329 326 326 323 324 323 320 316 301